Timestamp[UTC];2m Lufttemperatur [degC] (tas);Stations-Luftdruck [Pa] (ps);relative Luftfeuchtigkeit [%] (hurs);spezifische Luftfeuchtigkeit [kg/kg] (huss);Niederschlagsmenge [mm] (pr);Windgeschwindigkeit in 2m [m/s] (sfcWind);Windrichtung [deg];maximale Windgeschwindigkeit [m/s] (wsgsmax);u-Windkomponente [m/s] (uas);v-Windkomponente [m/s] (vas);Sonneneinstrahlung [W/m2];Blitzrate [n];Blitzentfernung [km];Bodenfeuchte in 5cm Tiefe [vol%];Bodenfeuchte in 15cm Tiefe [vol%];Bodenfeuchte in 30cm Tiefe [vol%];Bodenfeuchte in 60cm Tiefe [vol%];Bodentemperatur in 5cm Tiefe [degC];Bodentemperatur in 15cm Tiefe [degC];Bodentemperatur in 30cm Tiefe [degC];Bodentemperatur in 60cm Tiefe [degC];Matrixpotential in 30cm Tiefe [kPa];Bodenfeuchte aus CRNS [vol%] (mrso);Neutronen Anzahl [N/h]
2023-08-01 00:00:00;16,6;97936;93;0,0112;1,29;3,5;219;6,3;-2,05;-2,54;0;1;20;28,4;16,2;14,1;22,3;18,0;18,7;18,9;18,3;-9990,0;25,7;1595
2023-08-01 01:00:00;16,9;97873;92;0,0113;2,05;2,2;215;3,9;-1,24;-1,74;0;0;nan;29,3;16,3;14,1;22,3;17,9;18,6;18,9;18,3;-9990,0;25,4;1600
2023-08-01 02:00:00;16,5;97856;95;0,0114;1,18;2,6;305;3,8;-2,02;1,41;0;0;nan;33,3;16,6;14,1;22,3;17,9;18,5;18,8;18,3;-9990,0;25,6;1596
2023-08-01 03:00:00;15,8;97908;95;0,0108;0,2;4,1;310;6,7;-3,08;2,54;0;1;14;35,8;16,6;14,1;22,3;17,8;18,4;18,8;18,3;-9990,0;25,5;1599
2023-08-01 04:00:00;15,4;97933;92;0,0102;0,0;3,1;289;4,4;-2,89;0,99;6;0;nan;35,6;16,7;14,1;22,3;17,6;18,3;18,7;18,3;-9990,0;25,7;1595
2023-08-01 05:00:00;15,4;97984;92;0,0103;0,0;1,9;267;2,8;-1,9;-0,09;43;0;nan;35,3;16,7;14,1;22,3;17,5;18,2;18,7;18,3;-9990,0;25,8;1592
2023-08-01 06:00:00;15,8;98002;88;0,01;0,0;2,9;271;5,5;-2,8;0,06;168;0;nan;34,9;16,8;14,1;22,3;17,5;18,2;18,7;18,3;-9990,0;25,8;1592
2023-08-01 07:00:00;nan;nan;nan;nan;0,0;nan;nan;nan;nan;nan;nan;0;nan;34,7;16,9;14,1;22,3;17,8;18,1;18,6;18,3;-9990,0;26,1;1587
2023-08-01 08:00:00;17,2;98058;80;0,01;0,0;5,0;283;7,0;-4,85;1,13;474;0;nan;34,5;16,9;14,1;22,3;18,0;18,2;18,5;18,3;-9990,0;25,7;1594
2023-08-01 09:00:00;18,1;98078;73;0,0097;0,0;6,5;293;10,1;-5,87;2,52;480;0;nan;34,1;17,0;14,1;22,3;18,6;18,3;18,5;18,3;-9990,0;25,2;1603
2023-08-01 10:00:00;18,1;98100;76;0,0101;0,43;4,8;282;7,3;-4,57;0,99;550;0;nan;34,0;17,2;14,1;22,3;19,3;18,6;18,5;18,3;-9990,0;25,0;1607
2023-08-01 11:00:00;19,1;98116;69;0,0097;0,0;5,5;273;8,7;-5,38;0,27;370;0;nan;33,9;17,3;14,1;22,3;20,0;18,9;18,5;18,3;-9990,0;24,8;1611
2023-08-01 12:00:00;18,8;98160;72;0,0099;0,0;5,9;240;8,8;-5,09;-2,88;426;0;nan;33,4;17,5;14,1;22,3;20,4;19,3;18,5;18,3;-9990,0;25,0;1608
2023-08-01 13:00:00;18,4;98188;72;0,0098;0,0;5,7;250;8,6;-5,24;-1,87;396;0;nan;33,1;17,6;14,1;22,3;20,6;19,5;18,6;18,2;-9990,0;24,9;1609
2023-08-01 14:00:00;18,2;98222;69;0,0091;0,0;6,3;257;8,6;-6,08;-1,39;268;0;nan;32,9;17,7;14,1;22,3;20,6;19,7;18,6;18,2;-9990,0;24,9;1609
2023-08-01 15:00:00;18,9;98232;68;0,0094;0,0;5,6;287;9,0;-4,47;1,36;281;0;nan;32,6;17,8;14,1;22,3;20,5;19,9;18,7;18,2;-9990,0;24,7;1613
2023-08-01 16:00:00;16,8;98298;76;0,0092;0,0;4,0;302;5,9;-3,32;2,1;93;0;nan;32,3;17,9;14,1;22,3;20,3;19,9;18,8;18,2;-9990,0;24,8;1611
2023-08-01 17:00:00;nan;nan;nan;nan;0,0;nan;nan;nan;nan;nan;nan;0;nan;32,2;18,1;14,1;22,3;20,0;20,0;18,9;18,2;-9990,0;24,7;1613
2023-08-01 18:00:00;nan;nan;nan;nan;0,0;nan;nan;nan;nan;nan;nan;0;nan;31,9;18,2;14,1;22,3;19,7;19,8;19,0;18,2;-9990,0;24,8;1612
2023-08-01 19:00:00;17,2;98402;71;0,0088;0,0;2,8;258;4,1;-2,7;-0,56;0;0;nan;31,8;18,3;14,1;22,3;19,3;19,6;19,0;18,2;-9990,0;24,8;1612
2023-08-01 20:00:00;16,2;98432;74;0,0087;0,0;1,9;204;2,8;-0,75;-1,71;0;0;nan;31,6;18,4;14,1;22,3;19,0;19,4;19,0;18,2;-9990,0;25,4;1600
2023-08-01 21:00:00;16,8;98412;74;0,0089;0,0;2,5;216;3,5;-1,46;-2,0;0;0;nan;31,5;18,5;14,1;22,3;18,6;19,2;19,0;18,2;-9990,0;25,1;1606
2023-08-01 22:00:00;16,4;98400;75;0,0089;0,0;3,4;226;5,1;-2,25;-2,17;0;0;nan;31,4;18,6;14,1;22,3;18,4;19,0;19,0;18,2;-9990,0;25,2;1604
2023-08-01 23:00:00;15,4;98343;82;0,0091;0,0;2,2;200;3,6;-0,72;-2,01;0;0;nan;31,3;18,7;14,1;22,3;18,2;18,9;19,0;18,2;-9990,0;25,5;1597
2023-08-02 00:00:00;16,2;98295;80;0,0093;0,0;3,9;208;5,3;-1,81;-3,37;0;0;nan;31,2;18,8;14,1;22,3;17,9;18,7;18,9;18,2;-9990,0;25,5;1598
2023-08-02 01:00:00;16,0;98264;78;0,009;0,0;3,6;210;5,3;-1,72;-3,0;0;0;nan;31,1;18,9;14,1;22,3;17,7;18,5;18,9;18,2;-9990,0;26,3;1584
2023-08-02 02:00:00;14,8;98148;85;0,0092;0,0;2,4;167;3,7;0,56;-2,37;0;0;nan;31,0;19,0;14,1;22,3;17,6;18,4;18,8;18,2;-9990,0;26,5;1580
2023-08-02 03:00:00;14,7;98032;87;0,0093;0,0;1,8;151;2,6;0,86;-1,58;0;0;nan;30,9;19,1;14,1;22,3;17,4;18,2;18,8;18,2;-9990,0;26,7;1577
2023-08-02 04:00:00;15,0;97946;89;0,0096;0,34;2,1;139;3,4;1,37;-1,6;5;0;nan;30,8;19,2;14,1;22,3;17,3;18,1;18,7;18,2;-9990,0;26,9;1572
2023-08-02 05:00:00;15,3;97800;89;0,0099;0,2;2,9;140;4,2;1,81;-2,15;18;0;nan;30,9;19,2;14,1;22,3;17,2;18,0;18,6;18,2;-9990,0;26,9;1574
2023-08-02 06:00:00;16,0;97663;88;0,0102;0,03;3,5;143;4,9;2,05;-2,75;53;0;nan;31,0;19,3;14,1;22,3;17,2;18,0;18,6;18,2;-9990,0;27,0;1572
2023-08-02 07:00:00;16,5;97546;87;0,0105;0,22;4,3;168;6,5;0,86;-4,2;85;0;nan;31,1;19,4;14,1;22,3;17,3;17,9;18,5;18,2;-9990,0;27,0;1572
2023-08-02 08:00:00;17,1;97474;88;0,011;0,02;4,2;166;7,4;1,01;-4,04;158;0;nan;31,1;19,5;14,1;22,3;17,4;17,8;18,4;18,2;-9990,0;27,4;1565
2023-08-02 09:00:00;16,3;97404;93;0,0111;0,79;3,3;163;5,0;0,94;-3,18;132;0;nan;31,2;19,6;14,1;22,3;17,7;17,9;18,4;18,2;-9990,0;27,9;1557
2023-08-02 10:00:00;18,5;97328;95;0,013;0,0;3,0;183;5,5;-0,14;-2,93;435;0;nan;31,7;19,7;14,1;22,3;18,1;18,0;18,3;18,2;-9990,0;27,6;1561
2023-08-02 11:00:00;22,4;97215;78;0,0137;0,0;5,3;218;7,2;-3,19;-4,04;736;0;nan;32,0;19,8;14,1;22,3;19,2;18,3;18,3;18,2;-9990,0;28,0;1555
2023-08-02 12:00:00;24,0;97140;69;0,0132;0,0;6,3;222;9,2;-4,18;-4,62;630;0;nan;31,8;20,0;14,1;22,3;20,6;18,8;18,3;18,2;-9990,0;27,8;1558
2023-08-02 13:00:00;24,5;97108;61;0,0122;0,0;7,7;236;13,4;-6,11;-4,05;656;0;nan;31,6;20,0;14,1;22,3;21,3;19,5;18,3;18,2;-9990,0;27,9;1556
2023-08-02 14:00:00;23,2;97112;62;0,0113;0,07;5,4;253;9,0;-5,16;-1,54;350;0;nan;31,3;20,2;14,1;22,3;21,6;20,0;18,4;18,2;-9990,0;27,9;1556
2023-08-02 15:00:00;22,9;97110;66;0,012;0,04;5,8;280;8,5;-5,6;0,95;293;1;8;31,1;20,3;14,1;22,3;21,6;20,3;18,5;18,2;-9990,0;28,3;1551
2023-08-02 16:00:00;22,5;97122;66;0,0116;0,0;3,8;268;6,2;-3,73;-0,15;232;0;nan;31,1;20,4;14,1;22,4;21,5;20,6;18,7;18,1;-9990,0;27,5;1564
2023-08-02 17:00:00;17,1;97258;86;0,0108;0,73;4,8;281;7,4;-4,6;0,89;71;0;nan;31,0;20,4;14,1;22,4;21,2;20,7;18,9;18,1;-9990,0;27,4;1564
2023-08-02 18:00:00;nan;nan;nan;nan;0,0;nan;nan;nan;nan;nan;nan;0;nan;31,0;20,5;14,1;22,4;20,7;20,6;19,0;18,1;-9990,0;27,4;1565
2023-08-02 19:00:00;nan;nan;nan;nan;0,0;nan;nan;nan;nan;nan;nan;0;nan;30,9;20,6;14,1;22,4;20,3;20,4;19,1;18,1;-9990,0;28,4;1549
2023-08-02 20:00:00;19,2;97360;62;0,0088;0,0;5,9;218;7,0;-3,62;-4,63;0;0;nan;30,8;20,7;14,1;22,4;19,7;20,2;19,2;18,1;-9990,0;27,5;1564
2023-08-02 21:00:00;18,8;97382;65;0,009;0,0;7,0;223;12,8;-4,7;-5,09;0;0;nan;30,7;20,8;14,1;22,4;19,2;19,9;19,2;18,1;-9990,0;27,6;1562
2023-08-02 22:00:00;18,1;97380;69;0,0092;0,0;7,7;205;14,6;-3,31;-6,99;0;0;nan;30,6;20,8;14,1;22,4;18,8;19,6;19,3;18,1;-9990,0;27,4;1564
2023-08-02 23:00:00;17,0;97430;77;0,0096;0,58;6,9;217;11,6;-4,15;-5,45;0;0;nan;30,7;20,9;14,2;22,4;18,5;19,3;19,2;18,1;-9990,0;26,9;1573
2023-08-03 00:00:00;16,8;97450;78;0,0097;0,0;6,8;217;10,9;-4,12;-5,4;0;0;nan;31,3;21,0;14,2;22,4;18,2;19,1;19,2;18,2;-9990,0;26,6;1578
2023-08-03 01:00:00;16,8;97488;78;0,0095;0,0;5,5;236;9,2;-4,55;-3,02;0;0;nan;31,5;21,0;14,1;22,4;18,0;18,9;19,1;18,2;-9990,0;25,9;1590
2023-08-03 02:00:00;16,4;97546;80;0,0095;0,0;4,1;223;6,1;-2,78;-3,0;0;0;nan;31,5;21,1;14,1;22,4;17,7;18,7;19,1;18,2;-9990,0;26,4;1582
2023-08-03 03:00:00;15,6;97590;86;0,0097;0,56;3,2;210;6,4;-1,6;-2,79;0;0;nan;31,6;21,2;14,1;22,4;17,5;18,5;19,0;18,2;-9990,0;26,3;1584
2023-08-03 04:00:00;15,8;97630;85;0,0097;0,02;3,2;213;6,1;-1,73;-2,67;8;0;nan;31,8;21,2;14,1;22,4;17,4;18,3;18,9;18,2;-9990,0;26,0;1588
2023-08-03 05:00:00;16,1;97693;83;0,0097;0,0;4,2;215;6,9;-2,42;-3,45;82;0;nan;31,8;21,3;14,1;22,4;17,3;18,2;18,8;18,2;-9990,0;26,0;1589
2023-08-03 06:00:00;16,6;97742;82;0,0099;0,0;4,8;213;6,9;-2,63;-4,0;161;0;nan;31,8;21,4;14,1;22,4;17,4;18,1;18,7;18,2;-9990,0;25,9;1590
2023-08-03 07:00:00;17,4;97810;80;0,0102;0,0;6,3;208;11,8;-3,0;-5,56;343;0;nan;31,8;21,5;14,1;22,4;17,5;18,0;18,6;18,2;-9990,0;25,9;1590
2023-08-03 08:00:00;18,2;97885;77;0,0102;0,0;6,7;228;11,5;-4,89;-4,38;358;0;nan;31,7;21,6;14,1;22,4;18,0;18,0;18,6;18,2;-9990,0;26,2;1586
2023-08-03 09:00:00;18,5;97957;73;0,0099;0,0;7,0;240;10,8;-5,99;-3,49;269;0;nan;31,6;21,7;14,1;22,3;18,4;18,2;18,5;18,2;-9990,0;25,8;1592
2023-08-03 10:00:00;18,4;98025;74;0,0101;0,1;6,4;251;10,8;-5,99;-2,08;350;0;nan;31,5;21,8;14,1;22,3;18,6;18,4;18,4;18,2;-9990,0;26,0;1589
2023-08-03 11:00:00;16,1;98120;90;0,0105;0,68;5,6;291;8,0;-5,19;1,98;211;0;nan;31,8;21,9;14,1;22,3;18,9;18,6;18,4;18,2;-9990,0;25,9;1591
2023-08-03 12:00:00;19,5;98142;78;0,0112;0,0;5,4;268;8,5;-5,3;-0,2;688;0;nan;33,2;22,0;14,1;22,3;19,3;18,7;18,4;18,2;-9990,0;26,2;1586
2023-08-03 13:00:00;20,3;98218;69;0,0105;0,0;5,8;281;9,7;-5,6;1,1;405;0;nan;33,4;22,1;14,1;22,3;20,2;19,0;18,5;18,2;-9990,0;26,2;1586
2023-08-03 14:00:00;19,6;98332;73;0,0106;0,09;5,1;274;8,7;-4,93;0,37;313;0;nan;33,3;22,2;14,1;22,3;20,4;19,4;18,5;18,2;-9990,0;26,4;1581
2023-08-03 15:00:00;19,5;98412;72;0,0103;0,0;6,7;304;9,0;-5,51;3,66;412;0;nan;33,1;22,3;14,1;22,3;20,4;19,6;18,6;18,2;-9990,0;26,1;1586
2023-08-03 16:00:00;19,1;98474;73;0,0102;0,0;5,2;303;7,4;-4,34;2,82;229;0;nan;32,9;22,4;14,1;22,3;20,3;19,7;18,6;18,2;-9990,0;27,0;1572
2023-08-03 17:00:00;17,3;98580;80;0,01;0,0;4,2;331;5,8;-2,02;3,6;68;0;nan;32,7;22,5;14,2;22,4;20,2;19,8;18,7;18,1;-9990,0;27,1;1570
2023-08-03 18:00:00;17,2;98640;77;0,0096;0,0;4,0;295;5,3;-3,6;1,7;30;0;nan;32,5;22,6;14,2;22,3;19,8;19,8;18,8;18,1;-9990,0;27,0;1571
2023-08-03 19:00:00;16,4;98716;79;0,0093;0,0;1,9;257;2,8;-1,7;-0,4;2;0;nan;32,4;22,7;14,2;22,3;19,4;19,7;18,9;18,1;-9990,0;24,5;1617
2023-08-03 20:00:00;15,9;98828;81;0,0093;0,0;2,6;268;3,5;-2,54;-0,11;0;0;nan;32,3;22,8;14,2;22,3;19,1;19,5;18,9;18,1;-9990,0;24,5;1616
2023-08-03 21:00:00;16,0;98871;81;0,0093;0,0;2,8;292;3,8;-2,63;1,05;0;0;nan;32,2;22,9;14,2;22,4;18,8;19,3;19,0;18,1;-9990,0;25,0;1607
2023-08-03 22:00:00;15,8;98910;82;0,0093;0,0;2,7;303;3,9;-2,24;1,43;0;0;nan;32,1;23,0;14,2;22,3;18,5;19,1;19,0;18,1;-9990,0;24,8;1612
2023-08-03 23:00:00;15,6;98948;83;0,0093;0,0;3,2;302;4,2;-2,75;1,68;0;0;nan;32,0;23,1;14,2;22,3;18,3;18,9;19,0;18,1;-9990,0;24,5;1617
2023-08-04 00:00:00;15,3;98974;83;0,0091;0,0;3,1;302;4,4;-2,6;1,65;0;0;nan;31,9;23,2;14,2;22,3;18,1;18,8;18,9;18,1;-9990,0;24,5;1617
2023-08-04 01:00:00;15,2;99003;83;0,0091;0,0;2,0;306;2,9;-1,62;1,19;0;0;nan;31,8;23,3;14,2;22,3;17,9;18,6;18,9;18,1;-9990,0;24,7;1614
2023-08-04 02:00:00;14,8;99030;86;0,0091;0,0;1,8;295;2,6;-1,61;0,74;0;0;nan;31,7;23,3;14,2;22,3;17,7;18,4;18,8;18,2;-9990,0;24,0;1626
2023-08-04 03:00:00;14,7;99054;86;0,0091;0,0;2,8;307;3,9;-2,21;1,69;0;0;nan;31,6;23,4;14,2;22,3;17,6;18,3;18,8;18,2;-9990,0;24,1;1625
2023-08-04 04:00:00;14,5;99075;87;0,009;0,0;2,6;302;3,9;-2,21;1,4;12;0;nan;31,6;23,5;14,2;22,3;17,4;18,2;18,7;18,2;-9990,0;24,3;1621
2023-08-04 05:00:00;14,5;99112;88;0,0092;0,0;2,6;307;3,4;-2,04;1,56;51;0;nan;31,5;23,5;14,2;22,3;17,3;18,0;18,6;18,2;-9990,0;24,2;1622
2023-08-04 06:00:00;15,1;99175;87;0,0093;0,0;3,1;316;4,5;-2,16;2,24;115;0;nan;31,4;23,6;14,2;22,3;17,3;17,9;18,6;18,2;-9990,0;24,0;1627
2023-08-04 07:00:00;15,6;99220;86;0,0095;0,0;3,0;337;4,1;-1,17;2,74;216;0;nan;31,4;23,7;14,2;22,3;17,5;17,9;18,5;18,2;-9990,0;24,1;1624
2023-08-04 08:00:00;16,0;99260;81;0,0092;0,0;3,6;320;4,7;-2,28;2,76;104;0;nan;31,3;23,7;14,2;22,3;17,7;17,9;18,4;18,2;-9990,0;23,7;1633
2023-08-04 09:00:00;16,7;99296;79;0,0095;0,0;3,2;322;4,5;-1,87;2,38;184;0;nan;31,1;23,8;14,2;22,3;17,8;18,0;18,4;18,2;-9990,0;24,0;1626
2023-08-04 10:00:00;17,1;99312;76;0,0093;0,0;2,6;326;3,9;-1,48;2,16;192;0;nan;31,1;23,8;14,2;22,3;18,0;18,0;18,4;18,2;-9990,0;24,2;1623
2023-08-04 11:00:00;17,2;99324;75;0,0093;0,0;1,6;355;2,5;-0,12;1,32;216;0;nan;30,9;23,9;14,2;22,3;18,1;18,1;18,3;18,1;-9990,0;23,6;1635
2023-08-04 12:00:00;18,2;99335;70;0,0093;0,0;2,0;298;4,3;-1,63;0,86;370;0;nan;30,9;23,9;14,2;22,3;18,6;18,2;18,3;18,1;-9990,0;23,3;1642
2023-08-04 13:00:00;19,3;99348;65;0,0091;0,0;2,7;337;3,9;-1,02;2,42;499;0;nan;30,7;24,0;14,2;22,3;19,3;18,5;18,3;18,1;-9990,0;24,1;1625
2023-08-04 14:00:00;20,6;99333;61;0,0093;0,0;1,9;342;3,4;-0,5;1,58;600;0;nan;30,6;24,0;14,2;22,3;20,0;18,9;18,3;18,1;-9990,0;23,5;1637
2023-08-04 15:00:00;20,1;99348;59;0,0088;0,0;2,8;327;4,1;-1,53;2,34;182;0;nan;30,3;24,0;14,2;22,3;20,3;19,2;18,4;18,1;-9990,0;23,2;1644
2023-08-04 16:00:00;17,4;99390;73;0,0091;0,42;4,8;345;7,4;-1,23;4,63;92;1;20;30,2;24,1;14,2;22,3;19,9;19,4;18,4;18,1;-9990,0;23,3;1642
2023-08-04 17:00:00;17,3;99472;80;0,0099;0,0;2,1;342;3,9;-0,62;1,86;93;0;nan;30,1;24,1;14,2;22,3;19,6;19,5;18,5;18,1;-9990,0;22,9;1649
2023-08-04 18:00:00;17,1;99522;78;0,0096;0,0;1,7;297;2,6;-1,52;0,78;31;0;nan;30,1;24,1;14,2;22,3;19,4;19,5;18,6;18,1;-9990,0;23,0;1647
2023-08-04 19:00:00;16,4;99542;79;0,0092;0,0;1,4;263;2,1;-1,37;-0,18;2;0;nan;30,0;24,1;14,2;22,3;19,0;19,3;18,7;18,1;-9990,0;24,1;1625
2023-08-04 20:00:00;15,4;99573;80;0,0087;0,0;2,0;254;3,0;-1,95;-0,55;0;0;nan;29,9;24,2;14,2;22,3;18,7;19,2;18,7;18,1;-9990,0;24,1;1625
2023-08-04 21:00:00;14,8;99612;82;0,0087;0,0;2,0;251;3,0;-1,88;-0,66;0;0;nan;29,8;24,2;14,2;22,3;18,3;19,0;18,8;18,1;-9990,0;23,6;1636
2023-08-04 22:00:00;15,0;99658;84;0,0089;0,0;1,6;266;2,6;-1,52;-0,12;0;0;nan;29,8;24,2;14,2;22,3;18,0;18,8;18,8;18,1;-9990,0;23,9;1629
2023-08-04 23:00:00;15,2;99650;86;0,0093;0,0;2,0;292;3,1;-1,81;0,73;0;0;nan;29,7;24,2;14,2;22,3;17,8;18,6;18,7;18,1;-9990,0;24,1;1625
2023-08-05 00:00:00;14,1;99590;87;0,0088;0,0;1,0;234;1,1;-0,81;-0,58;0;0;nan;29,7;24,2;14,2;22,3;17,6;18,4;18,7;18,1;-9990,0;24,0;1627
2023-08-05 01:00:00;13,7;99578;87;0,0086;0,0;1,3;252;2,1;-1,16;-0,39;0;0;nan;29,6;24,2;14,2;22,3;17,4;18,2;18,7;18,1;-9990,0;23,8;1631
2023-08-05 02:00:00;12,1;99564;89;0,0079;0,0;0,8;183;1,2;-0,03;-0,7;0;0;nan;29,6;24,2;14,2;22,3;17,0;18,0;18,6;18,1;-9990,0;23,8;1632
2023-08-05 03:00:00;12,3;99538;89;0,008;0,0;1,0;224;1,2;-0,65;-0,66;0;0;nan;29,5;24,3;14,2;22,3;16,6;17,8;18,6;18,1;-9990,0;23,6;1635
2023-08-05 04:00:00;10,9;99494;92;0,0076;0,02;0,8;141;1,2;0,42;-0,53;39;0;nan;29,5;24,3;14,2;22,3;16,2;17,4;18,4;18,1;-9990,0;23,4;1640
2023-08-05 05:00:00;13,4;99476;92;0,0088;0,0;1,8;183;2,9;-0,08;-1,74;126;1;14;29,4;24,3;14,2;22,3;16,3;17,2;18,3;18,1;-9990,0;23,4;1640
2023-08-05 06:00:00;15,5;99467;89;0,0098;0,0;1,6;183;2,6;-0,09;-1,47;268;0;nan;29,4;24,3;14,2;22,3;16,8;17,2;18,2;18,1;-9990,0;23,9;1629
2023-08-05 07:00:00;16,5;99427;84;0,0099;0,0;1,8;171;3,6;0,27;-1,79;396;0;nan;29,4;24,3;14,2;22,3;17,3;17,3;18,1;18,1;-9990,0;24,1;1625
2023-08-05 08:00:00;19,1;99300;66;0,0092;0,0;2,9;200;5,5;-1,0;-2,77;603;0;nan;29,4;24,3;14,2;22,3;17,7;17,4;18,1;18,1;-9990,0;24,3;1621
2023-08-05 09:00:00;19,4;99267;62;0,0087;0,0;3,0;188;5,9;-0,41;-2,81;451;1;6;29,3;24,3;14,2;22,3;18,7;17,8;18,0;18,1;-9990,0;24,4;1619
2023-08-05 10:00:00;20,6;99180;58;0,0088;0,0;3,8;210;6,8;-1,86;-3,24;661;0;nan;29,2;24,3;14,2;22,3;19,5;18,3;18,0;18,1;-9990,0;24,2;1623
2023-08-05 11:00:00;21,0;99100;55;0,0087;0,0;3,7;205;7,7;-1,46;-3,11;487;0;nan;29,2;24,4;14,2;22,3;20,3;18,8;18,0;18,1;-9990,0;23,7;1634
2023-08-05 12:00:00;20,9;99026;55;0,0086;0,05;3,3;200;6,8;-1,11;-3,11;308;0;nan;28,9;24,4;14,2;22,3;20,7;19,3;18,1;18,0;-9990,0;24,0;1628
2023-08-05 13:00:00;18,8;98994;66;0,009;0,61;3,5;221;5,7;-2,17;-2,53;172;0;nan;28,7;24,4;14,2;22,3;20,5;19,6;18,2;18,0;-9990,0;23,1;1646
2023-08-05 14:00:00;18,4;98910;67;0,0089;0,0;3,8;215;7,0;-2,11;-2,98;152;0;nan;28,6;24,4;14,2;22,3;20,2;19,7;18,4;18,0;-9990,0;23,8;1630
2023-08-05 15:00:00;18,9;98865;62;0,0085;0,0;3,6;233;6,6;-2,93;-2,17;79;0;nan;28,5;24,4;14,2;22,3;20,0;19,7;18,5;18,0;-9990,0;24,0;1628
2023-08-05 16:00:00;nan;nan;nan;nan;0,0;nan;nan;nan;nan;nan;nan;0;nan;28,4;24,4;14,2;22,3;19,6;19,7;18,6;18,0;-9990,0;23,6;1636
2023-08-05 17:00:00;17,6;98817;64;0,0081;0,0;3,3;209;5,3;-1,54;-2,73;25;0;nan;28,4;24,4;14,2;22,3;19,5;19,6;18,7;18,0;-9990,0;23,8;1631
2023-08-05 18:00:00;16,9;98747;67;0,0082;0,0;1,7;158;3,6;0,61;-1,54;36;0;nan;28,3;24,4;14,2;22,3;19,2;19,4;18,7;18,0;-9990,0;23,7;1633
2023-08-05 19:00:00;16,8;98710;68;0,0082;0,0;2,5;157;4,0;0,98;-2,24;3;0;nan;28,2;24,4;14,2;22,3;18,8;19,3;18,8;18,0;-9990,0;23,8;1631
2023-08-05 20:00:00;16,8;98692;69;0,0083;0,0;2,3;168;4,5;0,48;-2,26;0;0;nan;28,1;24,4;14,2;22,3;18,5;19,1;18,8;18,0;-9990,0;23,8;1632
2023-08-05 21:00:00;16,1;98620;72;0,0084;0,0;2,0;155;3,8;0,84;-1,8;0;0;nan;28,0;24,4;14,2;22,3;18,2;18,9;18,8;18,0;-9990,0;24,2;1623
2023-08-05 22:00:00;15,7;98533;75;0,0084;0,0;2,1;139;4,3;1,17;-1,36;0;0;nan;28,0;24,3;14,2;22,3;17,9;18,8;18,8;18,0;-9990,0;23,9;1630
2023-08-05 23:00:00;nan;nan;nan;nan;0,0;nan;nan;nan;nan;nan;nan;0;nan;27,9;24,3;14,2;22,3;17,7;18,6;18,7;18,0;-9990,0;24,0;1626
2023-08-06 00:00:00;15,2;98432;80;0,0087;0,0;1,7;149;2,8;0,87;-1,47;0;0;nan;27,9;24,3;14,2;22,3;17,5;18,4;18,7;18,0;-9990,0;24,1;1624
2023-08-06 01:00:00;14,8;98385;80;0,0085;0,0;2,2;172;3,8;0,32;-2,22;0;0;nan;27,8;24,3;14,2;22,3;17,4;18,2;18,6;18,0;-9990,0;24,1;1626
2023-08-06 02:00:00;14,4;98322;81;0,0085;0,0;1,7;146;2,7;0,9;-1,31;0;0;nan;27,8;24,3;14,2;22,3;17,1;18,1;18,6;18,0;-9990,0;24,3;1621
2023-08-06 03:00:00;14,3;98280;83;0,0086;0,03;1,9;149;3,2;0,97;-1,63;0;0;nan;27,7;24,3;14,2;22,3;17,0;17,9;18,5;18,0;-9990,0;24,3;1621
2023-08-06 04:00:00;14,0;98242;88;0,0089;0,77;1,4;141;2,3;0,85;-1,06;18;0;nan;27,7;24,3;14,2;22,3;16,9;17,7;18,4;18,0;-9990,0;24,3;1621
2023-08-06 05:00:00;14,3;98268;89;0,0093;0,48;1,7;188;3,3;-0,22;-1,64;25;0;nan;27,7;24,3;14,2;22,3;16,8;17,6;18,4;18,0;-9990,0;24,6;1614
2023-08-06 06:00:00;14,9;98326;89;0,0095;0,0;2,0;234;2,8;-1,62;-1,16;81;0;nan;27,8;24,3;14,2;22,3;16,8;17,6;18,3;18,0;-9990,0;24,3;1621
2023-08-06 07:00:00;15,7;98365;86;0,0097;0,0;2,7;281;4,5;-2,54;0,5;216;0;nan;28,0;24,3;14,2;22,3;17,1;17,5;18,2;18,0;-9990,0;24,1;1624
2023-08-06 08:00:00;15,8;98394;81;0,0093;0,0;3,4;283;4,8;-3,23;0,76;148;0;nan;28,0;24,3;14,2;22,3;17,4;17,6;18,1;18,0;-9990,0;24,0;1627
2023-08-06 09:00:00;14,7;98448;87;0,0092;0,46;7,2;295;10,9;-6,47;3,06;192;0;nan;28,0;24,3;14,2;22,3;17,6;17,7;18,1;18,0;-9990,0;23,9;1629
2023-08-06 10:00:00;13,8;98555;90;0,009;0,12;7,9;296;12,4;-7,06;3,5;203;0;nan;28,1;24,3;14,2;22,3;17,6;17,7;18,0;18,0;-9990,0;24,1;1626
2023-08-06 11:00:00;13,2;98642;92;0,0089;0,52;7,3;299;10,0;-6,34;3,54;202;0;nan;28,3;24,3;14,2;22,3;17,5;17,7;18,0;18,0;-9990,0;24,8;1611
2023-08-06 12:00:00;13,0;98694;95;0,009;3,38;6,5;296;9,5;-5,82;2,89;90;0;nan;29,1;24,4;14,2;22,3;17,3;17,7;18,0;18,0;-9990,0;24,8;1611
2023-08-06 13:00:00;13,0;98735;96;0,0091;0,7;7,5;294;10,7;-6,85;3,11;106;0;nan;31,7;24,6;14,2;22,3;17,1;17,6;18,0;18,0;-9990,0;24,9;1609
2023-08-06 14:00:00;nan;nan;nan;nan;0,0;nan;nan;nan;nan;nan;nan;0;nan;33,9;24,6;14,2;22,3;17,0;17,5;18,0;18,0;-9990,0;24,9;1610
2023-08-06 15:00:00;nan;nan;nan;nan;0,0;nan;nan;nan;nan;nan;nan;0;nan;34,8;24,6;14,2;22,3;16,9;17,4;17,9;18,0;-9990,0;25,3;1602
2023-08-06 16:00:00;14,1;98927;87;0,0088;0,0;7,4;288;11,9;-6,98;2,24;58;0;nan;35,0;24,7;14,2;22,3;16,9;17,4;17,9;17,9;-9990,0;25,8;1593
2023-08-06 17:00:00;13,0;98988;90;0,0085;0,39;6,7;288;10,5;-6,34;2,06;23;0;nan;35,0;24,8;14,2;22,3;16,7;17,3;17,9;17,9;-9990,0;25,7;1594
2023-08-06 18:00:00;12,6;99050;94;0,0086;2,26;7,1;299;11,9;-6,24;3,42;8;0;nan;37,1;25,1;14,2;22,3;16,4;17,2;17,8;17,9;-9990,0;25,9;1590
2023-08-06 19:00:00;nan;nan;nan;nan;0,0;nan;nan;nan;nan;nan;nan;0;nan;39,6;25,5;14,2;22,3;16,1;17,0;17,8;17,9;-9990,0;25,9;1590
2023-08-06 20:00:00;12,8;99200;90;0,0084;0,14;6,2;298;9,0;-5,48;2,9;0;0;nan;39,3;26,1;14,2;22,3;15,8;16,8;17,7;17,9;-9990,0;26,3;1584
2023-08-06 21:00:00;nan;nan;nan;nan;0,0;nan;nan;nan;nan;nan;nan;0;nan;38,7;26,9;14,2;22,3;15,6;16,6;17,6;17,9;-9990,0;25,7;1595
2023-08-06 22:00:00;nan;nan;nan;nan;0,0;nan;nan;nan;nan;nan;nan;0;nan;38,1;27,7;14,2;22,3;15,5;16,5;17,6;17,9;-9990,0;26,3;1584
2023-08-06 23:00:00;nan;nan;nan;nan;0,0;nan;nan;nan;nan;nan;nan;0;nan;37,5;28,4;14,2;22,3;15,3;16,3;17,5;17,8;-9990,0;26,2;1585
2023-08-07 00:00:00;12,7;99237;83;0,0076;0,0;7,2;291;11,0;-6,71;2,59;0;0;nan;37,1;28,9;14,2;22,3;15,1;16,1;17,4;17,8;-9990,0;26,3;1584
2023-08-07 01:00:00;12,5;99253;84;0,0076;0,0;7,0;296;11,2;-6,24;3,1;0;0;nan;36,9;29,3;14,2;22,3;15,0;16,0;17,3;17,8;-9990,0;27,3;1566
2023-08-07 02:00:00;12,7;99260;82;0,0076;0,0;6,8;292;10,2;-6,29;2,53;0;0;nan;36,4;29,6;14,2;22,3;14,9;15,9;17,2;17,8;-9990,0;26,4;1581
2023-08-07 03:00:00;nan;nan;nan;nan;0,0;nan;nan;nan;nan;nan;nan;0;nan;36,0;29,8;14,2;22,3;14,7;15,8;17,1;17,8;-9990,0;26,4;1581
2023-08-07 04:00:00;nan;nan;nan;nan;0,0;nan;nan;nan;nan;nan;nan;0;nan;35,8;29,9;14,2;22,3;14,6;15,6;17,1;17,8;-9990,0;26,4;1581
2023-08-07 05:00:00;nan;nan;nan;nan;0,0;nan;nan;nan;nan;nan;nan;0;nan;35,6;30,0;14,2;22,3;14,5;15,5;17,0;17,8;-9990,0;24,0;1628
2023-08-07 06:00:00;nan;nan;nan;nan;0,0;nan;nan;nan;nan;nan;nan;0;nan;35,4;30,1;14,2;22,3;14,5;15,4;16,9;17,7;-9990,0;24,4;1619
2023-08-07 07:00:00;nan;nan;nan;nan;0,0;nan;nan;nan;nan;nan;nan;0;nan;35,3;30,1;14,2;22,3;14,4;15,3;16,8;17,7;-9990,0;nan;nan
2023-08-07 08:00:00;nan;nan;nan;nan;0,0;nan;nan;nan;nan;nan;nan;0;nan;35,4;30,2;14,2;22,3;14,5;15,3;16,7;17,7;-9990,0;nan;nan
2023-08-07 09:00:00;nan;nan;nan;nan;0,0;nan;nan;nan;nan;nan;nan;0;nan;35,3;30,3;14,2;22,3;14,5;15,2;16,6;17,7;-9990,0;nan;nan
2023-08-07 10:00:00;nan;nan;nan;nan;0,0;nan;nan;nan;nan;nan;nan;0;nan;35,1;30,3;14,2;22,3;14,8;15,2;16,6;17,6;-9990,0;nan;nan
2023-08-07 11:00:00;nan;nan;nan;nan;0,0;nan;nan;nan;nan;nan;nan;0;nan;34,9;30,3;14,2;22,3;15,1;15,3;16,5;17,6;-9990,0;nan;nan
2023-08-07 12:00:00;nan;nan;nan;nan;0,0;nan;nan;nan;nan;nan;nan;0;nan;34,7;30,3;14,2;22,3;15,8;15,5;16,5;17,6;-9990,0;nan;nan
2023-08-07 13:00:00;nan;nan;nan;nan;0,0;nan;nan;nan;nan;nan;nan;0;nan;34,3;30,3;14,2;22,3;16,6;15,8;16,4;17,5;-9990,0;nan;nan
2023-08-07 14:00:00;nan;nan;nan;nan;0,0;nan;nan;nan;nan;nan;nan;0;nan;33,9;30,3;14,2;22,3;17,0;16,2;16,4;17,5;-9990,0;nan;nan
2023-08-07 15:00:00;nan;nan;nan;nan;0,0;nan;nan;nan;nan;nan;nan;0;nan;33,6;30,3;14,2;22,3;17,1;16,5;16,5;17,5;-9990,0;nan;nan
2023-08-07 16:00:00;nan;nan;nan;nan;0,0;nan;nan;nan;nan;nan;nan;0;nan;33,3;30,2;14,2;22,3;17,0;16,7;16,5;17,5;-9990,0;nan;nan
2023-08-07 17:00:00;nan;nan;nan;nan;0,0;nan;nan;nan;nan;nan;nan;0;nan;33,0;30,2;14,2;22,3;16,9;16,8;16,6;17,4;-9990,0;nan;nan
2023-08-07 18:00:00;nan;nan;nan;nan;0,0;nan;nan;nan;nan;nan;nan;0;nan;32,9;30,2;14,2;22,3;16,7;16,8;16,7;17,4;-9990,0;nan;nan
2023-08-07 19:00:00;nan;nan;nan;nan;0,0;nan;nan;nan;nan;nan;nan;0;nan;32,8;30,1;14,2;22,3;16,5;16,8;16,8;17,4;-9990,0;nan;nan
2023-08-07 20:00:00;nan;nan;nan;nan;0,0;nan;nan;nan;nan;nan;nan;0;nan;32,6;30,1;14,2;22,3;16,2;16,7;16,8;17,4;-9990,0;nan;nan
2023-08-07 21:00:00;nan;nan;nan;nan;0,0;nan;nan;nan;nan;nan;nan;0;nan;32,5;30,0;14,2;22,3;15,9;16,6;16,9;17,4;-9990,0;nan;nan
2023-08-07 22:00:00;nan;nan;nan;nan;0,0;nan;nan;nan;nan;nan;nan;0;nan;32,4;30,0;14,2;22,3;15,6;16,4;16,9;17,3;-9990,0;nan;nan
2023-08-07 23:00:00;nan;nan;nan;nan;0,0;nan;nan;nan;nan;nan;nan;0;nan;32,3;30,0;14,2;22,3;15,3;16,3;16,9;17,3;-9990,0;nan;nan
2023-08-08 00:00:00;nan;nan;nan;nan;0,0;nan;nan;nan;nan;nan;nan;0;nan;32,2;29,9;14,2;22,3;15,1;16,1;16,9;17,3;-9990,0;nan;nan
2023-08-08 01:00:00;nan;nan;nan;nan;0,0;nan;nan;nan;nan;nan;nan;0;nan;32,2;29,9;14,2;22,3;14,9;15,9;16,8;17,3;-9990,0;nan;nan
2023-08-08 02:00:00;nan;nan;nan;nan;0,0;nan;nan;nan;nan;nan;nan;0;nan;32,1;29,8;14,2;22,3;14,7;15,8;16,8;17,3;-9990,0;nan;nan
2023-08-08 03:00:00;nan;nan;nan;nan;0,0;nan;nan;nan;nan;nan;nan;0;nan;32,0;29,8;14,2;22,3;14,5;15,6;16,7;17,3;-9990,0;nan;nan
2023-08-08 04:00:00;nan;nan;nan;nan;0,0;nan;nan;nan;nan;nan;nan;0;nan;31,9;29,8;14,2;22,3;14,3;15,4;16,7;17,3;-9990,0;nan;nan
2023-08-08 05:00:00;nan;nan;nan;nan;0,0;nan;nan;nan;nan;nan;nan;0;nan;31,8;29,8;14,2;22,3;14,2;15,3;16,6;17,3;-9990,0;nan;nan